station_id,lsid,temp_lo_at,hum_avg,temp_hi,temp_last,temp_hi_at,temp_lo,hum_lo_at,heat_index,temp_avg,hum_last,dew_point,wet_bulb_last,hum_hi_at,hum_lo,hum_hi,ts
113941,459396,1653377400,75.8,12.0,12.0,1653377390,11.9,1653377180,11.7,12.0,75,7.8,9.5,1653377240,75.3,76.2,1653377400
113941,459396,1653377700,75.1,12.0,12.0,1653377421,12.0,1653377690,11.7,12.0,75,7.7,9.5,1653377691,74.9,75.3,1653377700
113941,459396,1653378000,74.9,12.0,11.9,1653377960,11.9,1653377991,11.7,12.0,75,7.6,9.4,1653377931,74.7,75.1,1653378000
113941,459396,1653378300,75.1,12.1,12.1,1653378290,11.9,1653378050,11.8,12.0,75,7.9,9.6,1653378261,74.8,75.7,1653378300
113941,459396,1653380700,71.5,12.7,12.7,1653380692,12.6,1653380452,12.3,12.6,71,7.6,9.6,1653380571,71.3,71.8,1653380700
113941,459396,1653381000,71.1,12.8,12.8,1653380932,12.7,1653380842,12.3,12.7,70,7.5,9.6,1653380902,70.2,71.9,1653381000
113941,459396,1653381300,70.4,12.8,12.8,1653381292,12.8,1653381203,12.4,12.8,71,7.7,9.7,1653381292,69.9,71,1653381300
113941,459396,1653381600,70.1,13.0,13.0,1653381592,12.8,1653381352,12.5,12.9,69,7.5,9.6,1653381383,69.2,71,1653381600
113941,459396,1653381900,68.3,13.2,13.2,1653381862,13.0,1653381622,12.7,13.1,68,7.4,9.6,1653381653,67.9,68.6,1653381900
113941,459396,1653382200,68.3,13.3,13.2,1653382101,13.2,1653381921,12.8,13.2,68,7.5,9.8,1653381982,68,68.6,1653382200
113941,459396,1653382500,66.9,13.4,13.4,1653382492,13.3,1653382402,12.8,13.3,66,7.2,9.6,1653382222,65.9,68.4,1653382500
113941,459396,1653382800,65,13.4,13.4,1653382611,13.4,1653382791,12.8,13.4,65,6.9,9.4,1653382582,64.7,65.3,1653382800
113941,459396,1653383100,63.6,13.6,13.6,1653383091,13.4,1653382822,13.0,13.5,64,6.8,9.4,1653382822,63.3,64.6,1653383100
113941,459396,1653383400,63.4,13.9,13.9,1653383362,13.6,1653383122,13.2,13.8,62,6.8,9.5,1653383182,62.4,64.3,1653383400
113941,459396,1653383700,62.5,13.9,13.9,1653383693,13.9,1653383451,13.3,13.9,63,6.9,9.6,1653383572,62,63.1,1653383700
113941,459396,1653384000,62.3,14.2,14.1,1653383902,14.0,1653383723,13.5,14.1,63,7.0,9.7,1653383752,61.5,63,1653384000
113941,459396,1653384300,62.8,14.5,14.5,1653384292,14.0,1653384113,13.8,14.2,59,6.7,9.6,1653384173,59.4,64.6,1653384300
113941,459396,1653384600,59.4,14.5,14.3,1653384322,14.3,1653384502,13.6,14.3,60,6.7,9.5,1653384592,58.9,60.1,1653384600
113941,459396,1653384900,59.6,14.8,14.8,1653384893,14.4,1653384623,14.1,14.6,59,6.9,9.8,1653384774,58.8,60.5,1653384900
113941,459396,1653385200,58.1,14.8,14.6,1653384983,14.6,1653385191,13.8,14.8,58,6.4,9.4,1653384922,57.8,58.7,1653385200
113941,459396,1653385500,59.1,14.5,14.3,1653385222,14.2,1653385373,13.6,14.3,61,6.8,9.6,1653385492,57.8,60.6,1653385500
113941,459396,1653385800,60.4,15.1,15.1,1653385792,14.4,1653385523,14.4,14.7,60,7.4,10.2,1653385552,59.5,61.4,1653385800
113941,459396,1653386100,58.5,15.3,14.9,1653385852,14.9,1653386092,14.2,15.2,58,6.8,9.8,1653385823,57.5,59.9,1653386100
113941,459396,1653386400,59.1,14.9,14.4,1653386123,14.4,1653386394,13.7,14.6,60,6.8,9.6,1653386394,58.3,60.1,1653386400
113941,459396,1653386700,59.8,14.4,14.4,1653386692,14.3,1653386482,13.7,14.4,61,6.9,9.7,1653386693,59.3,60.7,1653386700
113941,459396,1653387000,59.2,14.5,14.5,1653386933,14.5,1653386722,13.7,14.5,57,6.1,9.3,1653386753,57,60.7,1653387000
113941,459396,1653387300,58.4,14.5,14.4,1653387203,14.4,1653387294,13.7,14.4,59,6.6,9.5,1653387294,57.2,59.3,1653387300
113941,459396,1653387600,59.9,14.4,14.3,1653387443,14.3,1653387593,13.6,14.4,60,6.5,9.4,1653387473,59.4,60.4,1653387600
113941,459396,1653387900,59,14.2,14.1,1653387624,14.1,1653387894,13.3,14.1,59,6.3,9.2,1653387864,57.7,60.1,1653387900
113941,459396,1653388200,59.8,14.5,14.5,1653388193,14.1,1653387924,13.8,14.3,59,6.6,9.5,1653387983,59,60.9,1653388200
113941,459396,1653388500,59,14.6,14.5,1653388284,14.4,1653388433,13.8,14.5,60,6.8,9.7,1653388493,58.3,60,1653388500
113941,459396,1653388800,60.2,14.7,14.6,1653388704,14.5,1653388523,13.9,14.6,60,6.9,9.8,1653388674,59.9,60.5,1653388800
113941,459396,1653389100,61.4,14.6,14.2,1653388823,14.2,1653389093,13.5,14.4,62,7.0,9.7,1653389065,60.2,62.3,1653389100
113941,459396,1653389400,62.7,14.1,14.0,1653389124,14.0,1653389364,13.3,14.0,61,6.7,9.4,1653389305,61.1,64,1653389400
113941,459396,1653389700,61.5,14.1,14.1,1653389696,13.9,1653389545,13.4,14.0,62,6.8,9.6,1653389545,61.1,61.9,1653389700
113941,459396,1653390000,60.8,14.3,14.3,1653389994,14.1,1653389814,13.6,14.2,60,6.7,9.5,1653389873,60.1,61.4,1653390000
113941,459396,1653390300,60.2,14.6,14.4,1653390144,14.3,1653390024,13.7,14.5,60,6.7,9.6,1653390084,59.6,60.7,1653390300
113941,459396,1653390600,59.8,14.4,13.9,1653390324,13.9,1653390594,13.2,14.1,60,6.2,9.1,1653390506,59.1,60.3,1653390600
113941,459396,1653390900,61.2,14.0,13.9,1653390865,13.9,1653390655,13.3,13.9,62,6.7,9.5,1653390895,60.3,61.9,1653390900
113941,459396,1653391200,61.5,14.4,14.4,1653391195,13.9,1653391015,13.7,14.0,61,7.1,9.8,1653391044,60.8,62.1,1653391200
113941,459396,1653391500,59.3,14.9,14.8,1653391315,14.6,1653391224,14.1,14.8,60,7.1,9.9,1653391224,57.9,61.1,1653391500
113941,459396,1653391800,58.1,14.8,14.4,1653391555,14.4,1653391795,13.6,14.6,58,6.2,9.3,1653391584,57,59.7,1653391800
113941,459396,1653392100,57.6,14.7,14.7,1653392095,14.4,1653391825,13.9,14.5,58,6.5,9.5,1653392065,56.8,58.4,1653392100
113941,459396,1653392400,56.5,14.8,14.8,1653392215,14.7,1653392335,14.0,14.8,56,6.2,9.3,1653392124,55.9,57.9,1653392400
113941,459396,1653392700,56.3,14.8,14.8,1653392454,14.7,1653392664,13.9,14.8,57,6.4,9.5,1653392664,55.5,57.4,1653392700
113941,459396,1653393000,56.8,15.8,15.8,1653392995,14.8,1653392754,14.9,15.2,56,7.1,10.2,1653392785,56.2,57.7,1653393000
113941,459396,1653393300,55.8,16.1,16.0,1653393207,15.8,1653393054,15.1,16.0,56,7.2,10.3,1653393146,55.2,56.5,1653393300
113941,459396,1653393600,56.1,16.0,15.9,1653393386,15.9,1653393504,15.1,16.0,57,7.3,10.4,1653393593,55.8,56.8,1653393600
113941,459396,1653393900,57,15.9,15.2,1653393627,15.2,1653393896,14.4,15.5,56,6.6,9.7,1653393837,56.3,57.5,1653393900
113941,459396,1653394200,56.1,16.1,16.1,1653394198,15.2,1653393927,15.2,15.4,55,7.0,10.2,1653393986,54.8,56.9,1653394200
113941,459396,1653394500,52.6,16.3,16.0,1653394315,16.0,1653394466,15.0,16.2,52,6.2,9.6,1653394225,50.8,54.3,1653394500
113941,459396,1653394800,52.9,16.3,16.3,1653394796,15.9,1653394615,15.3,16.0,54,6.8,10.1,1653394766,51.9,53.8,1653394800
113941,459396,1653395100,53.6,16.4,16.0,1653394856,16.0,1653395095,15.0,16.2,54,6.7,10.0,1653395066,52.9,54.3,1653395100
113941,459396,1653395400,55.5,16.0,16.0,1653395395,15.8,1653395245,15.1,15.8,56,7.1,10.2,1653395336,54.5,56.2,1653395400
113941,459396,1653395700,56.8,16.0,15.7,1653395456,15.7,1653395695,14.9,15.8,58,7.5,10.4,1653395666,54.8,58.6,1653395700
113941,459396,1653396000,59.9,15.6,15.6,1653395966,15.5,1653395875,14.8,15.6,60,7.9,10.6,1653395875,58.7,60.8,1653396000
113941,459396,1653396300,61.2,15.5,15.1,1653396025,15.1,1653396266,14.4,15.2,61,7.7,10.4,1653396205,60.4,61.9,1653396300
113941,459396,1653396600,61.1,15.1,15.1,1653396596,15.0,1653396415,14.4,15.0,62,7.7,10.4,1653396596,60.8,61.5,1653396600
113941,459396,1653396900,60.2,15.5,15.5,1653396896,15.1,1653396626,14.8,15.4,60,7.7,10.5,1653396626,59.6,61.1,1653396900
113941,459396,1653397500,56.7,16.1,15.9,1653397377,15.9,1653397496,15.0,16.0,56,7.2,10.2,1653397286,55.1,58.7,1653397500
113941,459396,1653397800,56,15.9,15.7,1653397586,15.7,1653397796,14.8,15.8,57,7.1,10.1,1653397796,55.5,56.6,1653397800
113941,459396,1653398100,57.1,15.7,15.5,1653397827,15.5,1653398097,14.7,15.6,58,7.3,10.3,1653398097,56.1,58.1,1653398100
113941,459396,1653398400,58.7,15.7,15.7,1653398396,15.5,1653398156,14.9,15.6,58,7.3,10.3,1653398276,57.6,59.1,1653398400
113941,459396,1653398700,58,15.6,15.4,1653398427,15.4,1653398696,14.6,15.5,57,7.0,10.0,1653398637,57.3,58.6,1653398700
113941,459396,1653399000,56.5,15.4,15.3,1653398727,15.3,1653398937,14.4,15.3,54,6.1,9.4,1653398727,54.4,57.4,1653399000
113941,459396,1653399300,54.9,15.5,15.5,1653399297,15.2,1653399086,14.6,15.3,55,6.5,9.7,1653399266,54.4,55.7,1653399300
113941,459396,1653399600,54.8,15.9,15.9,1653399566,15.6,1653399327,14.9,15.8,54,6.6,9.9,1653399476,53.5,55.9,1653399600
113941,459396,1653399900,54.7,15.9,15.8,1653399656,15.7,1653399776,14.9,15.8,56,6.9,10.0,1653399896,54,55.6,1653399900
113941,459396,1653400200,55.1,16.6,16.6,1653400137,15.8,1653399926,15.7,16.3,55,7.5,10.6,1653399987,54.7,55.5,1653400200
113941,459396,1653400500,55.6,16.6,16.2,1653400346,16.2,1653400497,15.3,16.5,56,7.5,10.5,1653400497,54.6,56.4,1653400500
113941,459396,1653400800,57.2,16.2,16.2,1653400677,16.0,1653400586,15.4,16.1,56,7.5,10.5,1653400586,56.4,58.2,1653400800
113941,459396,1653401100,54.1,16.2,16.0,1653400886,16.0,1653401097,15.0,16.1,54,6.6,9.9,1653400856,53.1,56.4,1653401100
113941,459396,1653401400,54.7,16.0,15.5,1653401127,15.5,1653401367,14.7,15.7,56,6.8,9.9,1653401397,53.9,55.9,1653401400
113941,459396,1653401700,55.8,15.7,15.6,1653401516,15.6,1653401697,14.7,15.6,56,6.9,10.0,1653401697,55.5,56.4,1653401700
113941,459396,1653402000,56.9,16.0,16.0,1653401997,15.5,1653401727,15.2,15.7,58,7.6,10.5,1653401997,56,57.5,1653402000
113941,459396,1653402300,58.2,16.2,15.7,1653402087,15.7,1653402297,14.9,16.0,59,7.7,10.5,1653402237,57.5,59.2,1653402300
113941,459396,1653402600,59.9,15.6,14.9,1653402327,14.9,1653402597,14.2,15.2,61,7.5,10.2,1653402597,59.1,61.3,1653402600
113941,459396,1653402900,62.1,14.9,14.9,1653402897,14.8,1653402838,14.2,14.8,62,7.7,10.3,1653402867,61.9,62.5,1653402900
113941,459396,1653403200,61.6,15.2,15.2,1653403199,14.9,1653402956,14.5,15.0,62,7.9,10.5,1653402927,60.9,62.5,1653403200
113941,459396,1653403500,61.2,15.2,14.9,1653403228,14.9,1653403498,14.2,15.0,62,7.6,10.3,1653403498,60.8,62,1653403500
113941,459396,1653403800,61.3,15.3,15.3,1653403798,14.9,1653403528,14.6,15.1,61,7.7,10.5,1653403528,60.6,62,1653403800
113941,459396,1653404100,60,15.4,15.2,1653403858,15.2,1653404099,14.5,15.3,60,7.5,10.3,1653404007,59.5,60.6,1653404100
113941,459396,1653404400,60.4,15.3,15.3,1653404368,15.1,1653404189,14.6,15.2,61,7.7,10.4,1653404398,60.2,60.6,1653404400
113941,459396,1653404700,60.1,15.6,15.5,1653404669,15.3,1653404427,14.8,15.5,59,7.6,10.4,1653404548,59.1,61,1653404700
113941,459396,1653405000,59.8,15.5,15.4,1653404818,15.4,1653404998,14.7,15.5,60,7.7,10.5,1653404998,59.4,60,1653405000
113941,459396,1653405600,56.5,16.4,16.4,1653405599,15.8,1653405418,15.6,16.0,57,7.9,10.8,1653405599,55.7,57.1,1653405600
113941,459396,1653405900,56.5,17.0,16.8,1653405809,16.5,1653405629,16.0,16.8,56,8.1,11.1,1653405657,55.6,57.2,1653405900
113941,459396,1653406200,56.9,16.8,16.4,1653406018,16.4,1653406197,15.6,16.6,57,7.8,10.8,1653406168,56.5,57.5,1653406200
113941,459396,1653406500,56.9,16.4,16.3,1653406439,16.2,1653406320,15.4,16.3,56,7.4,10.5,1653406349,55.7,57.9,1653406500
113941,459396,1653406800,57.2,16.7,16.7,1653406798,16.2,1653406558,15.9,16.3,57,8.1,11.1,1653406679,56,58,1653406800
113941,459396,1653407100,54.1,16.8,16.4,1653406858,16.4,1653407098,15.4,16.6,54,7.0,10.3,1653406828,53.5,55.5,1653407100
113941,459396,1653407400,54.1,16.3,16.2,1653407129,16.1,1653407309,15.3,16.2,55,7.0,10.2,1653407398,53.6,54.7,1653407400
113941,459396,1653407700,55.3,16.3,16.3,1653407699,16.1,1653407608,15.4,16.2,55,7.3,10.4,1653407638,54.7,56,1653407700
113941,459396,1653408000,55.4,16.8,16.8,1653407998,16.3,1653407729,16.0,16.6,56,7.9,10.9,1653407998,55.2,55.7,1653408000
113941,459396,1653408300,55.2,16.8,16.7,1653408088,16.7,1653408298,15.9,16.8,55,7.7,10.8,1653408059,54.7,55.8,1653408300
113941,459396,1653408600,56,16.6,16.4,1653408328,16.4,1653408569,15.6,16.5,57,7.8,10.8,1653408598,55,57.1,1653408600
113941,459396,1653408900,56.1,16.4,16.4,1653408899,16.3,1653408688,15.5,16.4,54,7.1,10.3,1653408749,53.9,57.6,1653408900
113941,459396,1653409200,52.9,16.5,16.4,1653409139,16.3,1653409049,15.4,16.4,53,6.7,10.1,1653409049,52.2,53.7,1653409200
113941,459396,1653409500,53.2,16.4,16.0,1653409259,16.0,1653409498,15.2,16.2,55,7.0,10.2,1653409499,51.6,55.1,1653409500
113941,459396,1653409800,55.8,16.0,15.9,1653409618,15.9,1653409799,15.0,16.0,56,7.0,10.1,1653409618,55.1,56.3,1653409800
113941,459396,1653410100,54.7,15.8,15.8,1653409828,15.7,1653410039,14.9,15.7,56,6.9,10.0,1653410099,54,55.5,1653410100
113941,459396,1653410400,55.4,15.8,15.7,1653410218,15.7,1653410399,14.9,15.8,56,6.9,10.0,1653410189,55,55.7,1653410400
113941,459396,1653410700,55.9,15.8,15.7,1653410577,15.7,1653410700,14.9,15.8,56,7.0,10.1,1653410700,55.7,56.2,1653410700
113941,459396,1653411000,56.4,15.8,15.8,1653410938,15.7,1653410789,15.0,15.8,56,7.1,10.2,1653410819,56.1,57,1653411000
113941,459396,1653411300,56.1,15.9,15.9,1653411270,15.7,1653411119,15.0,15.8,55,6.9,10.1,1653411149,55.2,57,1653411300
113941,459396,1653411600,56,15.8,15.7,1653411359,15.7,1653411598,14.9,15.8,57,7.2,10.2,1653411598,55.1,56.8,1653411600
113941,459396,1653411900,57.4,15.7,15.6,1653411660,15.6,1653411839,14.9,15.7,58,7.4,10.4,1653411899,56.9,58.1,1653411900
113941,459396,1653412200,57.6,15.8,15.7,1653412079,15.7,1653411929,14.9,15.8,58,7.4,10.3,1653411929,57.2,58.3,1653412200
113941,459396,1653412500,57.1,15.7,15.7,1653412470,15.7,1653412412,14.9,15.7,57,7.2,10.2,1653412320,56.8,57.6,1653412500
113941,459396,1653412800,56.8,15.8,15.5,1653412621,15.5,1653412800,14.7,15.7,58,7.2,10.2,1653412800,56.4,57.7,1653412800
113941,459396,1653413100,57.7,15.5,15.3,1653412831,15.3,1653413041,14.6,15.4,59,7.2,10.2,1653413099,56.9,58.5,1653413100
113941,459396,1653413400,58.2,15.6,15.6,1653413400,15.4,1653413160,14.8,15.5,59,7.5,10.4,1653413400,58.1,58.5,1653413400
113941,459396,1653413700,58,15.6,15.6,1653413671,15.6,1653413549,14.8,15.6,58,7.3,10.3,1653413431,57.9,58.2,1653413700
113941,459396,1653414000,57.6,15.6,15.6,1653413940,15.5,1653413851,14.8,15.6,58,7.2,10.2,1653413851,57.2,58.2,1653414000
113941,459396,1653414300,57.7,15.7,15.6,1653414241,15.6,1653414270,14.8,15.6,58,7.3,10.3,1653414151,57.6,58,1653414300
113941,459396,1653414600,57.7,15.6,15.4,1653414450,15.4,1653414571,14.7,15.5,58,7.2,10.2,1653414571,57.2,58,1653414600
113941,459396,1653414900,58.4,15.4,15.4,1653414841,15.3,1653414781,14.6,15.4,59,7.3,10.2,1653414900,58.1,58.8,1653414900
113941,459396,1653415200,59.1,15.3,15.3,1653414931,15.3,1653415141,14.6,15.3,59,7.4,10.3,1653415080,58.8,59.5,1653415200
113941,459396,1653415500,58.8,15.5,15.5,1653415411,15.3,1653415231,14.7,15.4,59,7.4,10.3,1653415261,58.1,59.4,1653415500
113941,459396,1653415800,59.1,15.4,15.2,1653415532,15.2,1653415801,14.5,15.3,59,7.4,10.2,1653415711,58.8,59.5,1653415800
113941,459396,1653416100,59.5,15.2,15.2,1653415831,15.2,1653416010,14.5,15.2,60,7.4,10.2,1653416101,59.3,59.8,1653416100
113941,459396,1653416400,59.2,15.2,15.1,1653416250,15.1,1653416402,14.4,15.2,60,7.3,10.1,1653416402,58.9,59.6,1653416400
113941,459396,1653416700,59.9,15.1,15.0,1653416432,15.0,1653416701,14.3,15.0,60,7.3,10.1,1653416701,59.6,60.1,1653416700
113941,459396,1653417000,60.7,15.0,15.0,1653417001,14.8,1653416881,14.3,14.9,61,7.5,10.2,1653416941,60.4,61.1,1653417000
113941,459396,1653417300,60.8,15.0,15.0,1653417063,14.9,1653417272,14.3,15.0,61,7.5,10.2,1653417212,60.6,61.1,1653417300
113941,459396,1653417600,60.4,15.3,15.2,1653417541,15.0,1653417331,14.5,15.2,60,7.6,10.3,1653417331,59.8,61,1653417600
113941,459396,1653417900,59.5,15.3,15.2,1653417662,15.2,1653417871,14.5,15.2,59,7.2,10.1,1653417632,58.9,60.1,1653417900
113941,459396,1653418200,58.5,15.2,15.0,1653417931,15.0,1653418171,14.2,15.1,58,6.8,9.8,1653417961,58,59.2,1653418200
113941,459396,1653418500,58.7,15.0,14.8,1653418232,14.8,1653418472,14.0,14.9,59,6.8,9.7,1653418472,58.3,59.1,1653418500
113941,459396,1653419100,60.3,14.6,14.4,1653418833,14.4,1653419072,13.7,14.5,61,7.0,9.7,1653419072,60,60.9,1653419100
113941,459396,1653419400,61.2,14.4,14.3,1653419132,14.3,1653419373,13.7,14.4,62,7.0,9.8,1653419373,60.9,61.5,1653419400
113941,459396,1653419700,61.8,14.3,14.3,1653419402,14.3,1653419672,13.6,14.3,62,7.1,9.8,1653419672,61.5,62.1,1653419700
113941,459396,1653420000,62.5,14.3,14.2,1653419702,14.2,1653419972,13.5,14.2,63,7.2,9.8,1653419943,62.2,62.8,1653420000
113941,459396,1653420300,63.3,14.2,14.0,1653420002,14.0,1653420273,13.4,14.1,64,7.2,9.8,1653420244,62.9,63.7,1653420300
113941,459396,1653420600,63.9,14.0,13.9,1653420303,13.9,1653420573,13.3,14.0,64,7.2,9.8,1653420573,63.8,64.1,1653420600
113941,459396,1653420900,64.5,13.9,13.8,1653420603,13.8,1653420873,13.3,13.9,65,7.3,9.8,1653420873,64.3,64.7,1653420900
113941,459396,1653421200,65.1,13.8,13.8,1653420993,13.8,1653421201,13.2,13.8,65,7.3,9.8,1653421201,64.8,65.3,1653421200
113941,459396,1653421500,65.4,13.7,13.7,1653421233,13.7,1653421473,13.1,13.7,66,7.3,9.7,1653421473,65.3,65.5,1653421500
113941,459396,1653421800,65.6,13.6,13.6,1653421533,13.6,1653421742,13.1,13.6,66,7.3,9.7,1653421742,65.5,65.8,1653421800
113941,459396,1653422100,65.5,13.6,13.5,1653421803,13.5,1653422073,13.0,13.6,66,7.2,9.6,1653422073,65.5,65.6,1653422100
113941,459396,1653422400,65.6,13.5,13.5,1653422253,13.5,1653422374,13.0,13.5,66,7.2,9.6,1653422134,65.6,65.8,1653422400
113941,459396,1653422700,65.6,13.5,13.5,1653422464,13.5,1653422673,12.9,13.5,66,7.2,9.6,1653422433,65.5,65.9,1653422700
113941,459396,1653423000,66,13.5,13.4,1653422703,13.4,1653422973,12.8,13.4,66,7.2,9.6,1653422973,65.8,66.2,1653423000
113941,459396,1653423300,66.5,13.4,13.2,1653423063,13.2,1653423272,12.7,13.3,67,7.2,9.5,1653423272,66.4,66.7,1653423300
113941,459396,1653423600,67,13.3,13.2,1653423303,13.2,1653423573,12.7,13.2,67,7.2,9.6,1653423573,66.7,67.3,1653423600
113941,459396,1653423900,67.3,13.2,13.2,1653423663,13.1,1653423843,12.6,13.2,67,7.2,9.5,1653423873,67.2,67.4,1653423900
113941,459396,1653424200,67.5,13.2,13.1,1653423964,13.1,1653424174,12.6,13.1,68,7.3,9.5,1653424174,67.4,67.7,1653424200
113941,459396,1653424500,67.7,13.1,13.1,1653424475,13.1,1653424445,12.6,13.1,68,7.3,9.6,1653424475,67.6,67.8,1653424500
113941,459396,1653424800,67.8,13.1,13.1,1653424565,13.1,1653424775,12.6,13.1,68,7.2,9.5,1653424714,67.7,68,1653424800
113941,459396,1653425100,67.5,13.1,13.1,1653425074,13.1,1653424834,12.6,13.1,68,7.2,9.5,1653424864,67.5,67.7,1653425100
113941,459396,1653425400,67.5,13.1,13.1,1653425135,13.1,1653425285,12.6,13.1,67,7.2,9.5,1653425316,67.3,67.6,1653425400
113941,459396,1653425700,67.1,13.1,13.1,1653425556,13.1,1653425406,12.6,13.1,67,7.2,9.5,1653425675,67.1,67.3,1653425700
113941,459396,1653426000,67.3,13.1,13.1,1653425764,13.1,1653425975,12.6,13.1,68,7.2,9.5,1653425975,67.3,67.5,1653426000
113941,459396,1653426300,67.6,13.0,13.0,1653426005,13.0,1653426274,12.5,13.0,68,7.1,9.4,1653426275,67.6,67.7,1653426300
113941,459396,1653426600,68,13.0,12.9,1653426364,12.9,1653426547,12.4,12.9,68,7.2,9.5,1653426575,67.8,68.3,1653426600
113941,459396,1653426900,68.8,12.9,12.8,1653426635,12.8,1653426874,12.3,12.8,69,7.3,9.5,1653426874,68.4,69.2,1653426900
113941,459396,1653427200,69.5,12.8,12.6,1653426905,12.6,1653427175,12.2,12.7,70,7.2,9.3,1653427116,69.3,69.7,1653427200
113941,459396,1653427500,69.5,12.6,12.5,1653427205,12.5,1653427476,12.1,12.6,70,7.1,9.3,1653427326,69.4,69.6,1653427500
113941,459396,1653427800,69.4,12.5,12.5,1653427566,12.5,1653427775,12.0,12.5,69,7.0,9.2,1653427716,69.2,69.6,1653427800
113941,459396,1653428100,69.3,12.5,12.4,1653427836,12.4,1653428075,12.0,12.5,69,6.9,9.1,1653427866,69,69.5,1653428100
113941,459396,1653428400,68.9,12.4,12.4,1653428256,12.4,1653428317,12.0,12.4,69,6.9,9.1,1653428346,68.9,69.1,1653428400
113941,459396,1653428700,68.7,12.4,12.4,1653428407,12.4,1653428676,11.9,12.4,69,6.7,9.0,1653428407,68.5,69,1653428700
113941,459396,1653429000,68.4,12.4,12.3,1653428796,12.3,1653428978,11.9,12.4,68,6.7,8.9,1653428706,68.2,68.6,1653429000
113941,459396,1653429300,68.4,12.4,12.3,1653429067,12.3,1653429277,11.8,12.3,69,6.7,8.9,1653429277,68.4,68.6,1653429300
113941,459396,1653429600,68.8,12.3,12.2,1653429397,12.2,1653429578,11.7,12.2,69,6.7,8.9,1653429578,68.6,69.1,1653429600
113941,459396,1653429900,69.4,12.2,12.1,1653429637,12.1,1653429878,11.7,12.1,70,6.7,8.9,1653429878,69.1,69.8,1653429900
113941,459396,1653430200,70,12.0,12.0,1653429908,12.0,1653430177,11.6,12.0,70,6.7,8.9,1653430177,69.8,70.3,1653430200
113941,459396,1653430500,70.3,12.0,11.9,1653430267,11.9,1653430449,11.5,11.9,70,6.7,8.8,1653430476,70.2,70.4,1653430500
113941,459396,1653430800,70.4,11.9,11.8,1653430598,11.8,1653430718,11.5,11.9,71,6.7,8.8,1653430780,70.4,70.6,1653430800
113941,459396,1653431100,70.7,11.8,11.8,1653430838,11.8,1653431079,11.4,11.8,71,6.6,8.7,1653431079,70.6,70.9,1653431100
113941,459396,1653431400,71,11.7,11.7,1653431169,11.7,1653431379,11.3,11.7,71,6.6,8.7,1653431379,70.9,71.3,1653431400
113941,459396,1653431700,71.4,11.7,11.6,1653431439,11.6,1653431680,11.2,11.6,72,6.6,8.6,1653431680,71.3,71.6,1653431700
113941,459396,1653432000,72,11.6,11.4,1653431709,11.4,1653431978,11.1,11.5,72,6.6,8.6,1653431978,71.7,72.4,1653432000
113941,459396,1653432300,72.6,11.4,11.3,1653432008,11.3,1653432278,11.0,11.3,73,6.6,8.5,1653432278,72.5,72.8,1653432300
113941,459396,1653432600,72.5,11.3,11.3,1653432578,11.3,1653432488,11.0,11.3,72,6.5,8.5,1653432459,72.4,72.7,1653432600
113941,459396,1653432900,72.5,11.3,11.3,1653432668,11.3,1653432879,11.0,11.3,73,6.5,8.5,1653432880,72.4,72.6,1653432900
113941,459396,1653433200,72.6,11.3,11.2,1653433088,11.2,1653432938,11.0,11.3,73,6.5,8.5,1653433180,72.6,72.7,1653433200
113941,459396,1653433500,72.7,11.3,11.2,1653433299,11.2,1653433479,10.9,11.2,73,6.5,8.5,1653433479,72.6,72.8,1653433500
113941,459396,1653433800,72.8,11.2,11.2,1653433749,11.2,1653433690,10.9,11.2,73,6.5,8.5,1653433600,72.7,72.9,1653433800
113941,459396,1653434100,73,11.2,11.1,1653433841,11.1,1653434079,10.9,11.2,73,6.5,8.4,1653434080,72.8,73.2,1653434100
113941,459396,1653434400,73.4,11.1,11.0,1653434110,11.0,1653434381,10.8,11.1,74,6.5,8.4,1653434351,73.3,73.6,1653434400
113941,459396,1653434700,73.6,11.0,11.0,1653434440,11.0,1653434651,10.8,11.0,74,6.5,8.4,1653434680,73.5,73.9,1653434700
113941,459396,1653435300,74.3,10.9,10.8,1653435012,10.8,1653435252,10.6,10.9,75,6.5,8.3,1653435283,74.1,74.7,1653435300
113941,459396,1653435900,75.5,10.6,10.6,1653435643,10.6,1653435882,10.4,10.6,76,6.5,8.2,1653435882,75.4,75.7,1653435900
113941,459396,1653436200,75.7,10.6,10.5,1653435942,10.5,1653436154,10.4,10.5,76,6.4,8.2,1653436184,75.7,75.9,1653436200
113941,459396,1653436500,76.1,10.5,10.4,1653436302,10.4,1653436453,10.3,10.5,76,6.4,8.1,1653436483,76,76.3,1653436500
113941,459396,1653436800,76.4,10.4,10.4,1653436513,10.4,1653436723,10.3,10.4,77,6.4,8.1,1653436783,76.3,76.6,1653436800
113941,459396,1653437100,76.9,10.4,10.3,1653436873,10.3,1653437025,10.2,10.3,77,6.5,8.1,1653437054,76.7,77.1,1653437100
113941,459396,1653437400,76.9,10.4,10.4,1653437384,10.3,1653437204,10.3,10.4,77,6.5,8.2,1653437204,76.8,77,1653437400
113941,459396,1653437700,76.6,10.4,10.4,1653437656,10.4,1653437534,10.3,10.4,77,6.5,8.2,1653437444,76.6,76.7,1653437700
113941,459396,1653438000,76.5,10.5,10.5,1653437983,10.4,1653437834,10.4,10.5,76,6.5,8.2,1653437923,76.4,76.6,1653438000
113941,459396,1653438300,76.2,10.6,10.5,1653438224,10.5,1653438044,10.4,10.5,76,6.5,8.2,1653438074,76.2,76.4,1653438300
113941,459396,1653438600,76.5,10.6,10.6,1653438433,10.6,1653438404,10.5,10.6,77,6.7,8.3,1653438585,76.3,76.8,1653438600
113941,459396,1653438900,77,10.6,10.5,1653438705,10.5,1653438855,10.4,10.6,77,6.7,8.4,1653438885,76.8,77.3,1653438900
113941,459396,1653439200,77.3,10.6,10.5,1653438916,10.5,1653439065,10.4,10.5,77,6.7,8.3,1653438945,77.2,77.4,1653439200
113941,459396,1653439500,77.2,10.6,10.6,1653439425,10.5,1653439306,10.5,10.5,77,6.8,8.4,1653439485,77.2,77.3,1653439500
113941,459396,1653439800,77.2,10.6,10.6,1653439755,10.6,1653439604,10.5,10.6,77,6.8,8.4,1653439785,77.2,77.3,1653439800